Weather History for KSSC - August, 2013

Change the Weather History Date:

Friday, August 16, 2013

  Actual Average Record
Temperature  
Mean Temperature 65 °F -  
Max Temperature 66 °F 87 °F 97 °F (2007)
Min Temperature 64 °F 68 °F 64 °F (2013)
Growing Degree Days 15 (Base 50)    
Moisture  
Dew Point 64 °F    
Average Humidity 94    
Maximum Humidity 100    
Minimum Humidity 88    
Precipitation  
Precipitation 0.91 in - - ()
Sea Level Pressure  
Sea Level Pressure 30.08 in    
Wind  
Wind Speed 9 mph (NE)    
Max Wind Speed 16 mph    
Max Gust Speed -    
Visibility 8 miles    
Events Rain    
Averages and records for this station are not official NWS values.
T = Trace of Precipitation, MM = Missing Value Source: NWS Daily Summary

Daily Weather History Graph

Daily Weather History Graph

Search for Another Location

Airport or City:

Trip Planner

Search our weather history database for the weather conditions in past years. The results will help you decide how hot, cold, wet, or windy it might be!

Date:

Astronomy

Aug. 16, 2013 Rise Set
Actual Time 6:44 AM EDT 8:07 PM EDT
Civil Twilight 6:18 AM EDT 8:33 PM EDT
Nautical Twilight 5:46 AM EDT 9:04 PM EDT
Astronomical Twilight 5:13 AM EDT 9:37 PM EDT
Moon 4:19 PM EDT (8/16) 1:50 AM EDT (8/16)
Length of Visible Light 14h 15m
Length of Day
13h 22m
Waxing Gibbous, 74% of the Moon is Illuminated
Aug 16
Waxing Gibbous
Aug 20
Full
Aug 28
Last Quarter
Sep 5
New
Sep 12
First Quarter

Hourly Weather History & Observations

Time (EDT) Temp. Dew Point Humidity Pressure Visibility Wind Dir Wind Speed Gust Speed Precip Events Conditions
12:58 AM 65.8 °F 63.5 °F 92% 30.08 in 10.0 mi East 5.8 mph - N/A   Scattered Clouds
1:58 AM 65.7 °F 63.0 °F 91% 30.07 in 10.0 mi ESE 2.3 mph - N/A   Overcast
2:58 AM 65.8 °F 63.1 °F 91% 30.06 in 10.0 mi NE 5.8 mph - N/A   Overcast
3:43 AM 66.2 °F 62.6 °F 88% 30.05 in 10.0 mi ENE 5.8 mph - N/A   Overcast
3:58 AM 65.7 °F 63.1 °F 92% 30.05 in 10.0 mi East 4.6 mph - N/A   Overcast
4:13 AM 66.2 °F 62.6 °F 88% 30.05 in 10.0 mi ENE 5.8 mph - N/A   Overcast
4:58 AM 65.3 °F 63.1 °F 93% 30.05 in 10.0 mi ENE 4.6 mph - N/A   Overcast
5:58 AM 65.7 °F 63.5 °F 93% 30.06 in 10.0 mi NE 3.5 mph - N/A   Overcast
6:03 AM 66.2 °F 62.6 °F 88% 30.06 in 10.0 mi ENE 4.6 mph - N/A   Overcast
6:22 AM 66.2 °F 62.6 °F 88% 30.07 in 10.0 mi NE 4.6 mph - N/A Rain Light Rain
6:38 AM 66.2 °F 64.4 °F 94% 30.07 in 10.0 mi ENE 4.6 mph - N/A   Overcast
6:58 AM 65.8 °F 64.0 °F 94% 30.07 in 10.0 mi NE 6.9 mph - 0.00 in   Overcast
7:09 AM 66.2 °F 64.4 °F 94% 30.08 in 10.0 mi NE 4.6 mph - N/A   Light Drizzle
7:25 AM 66.2 °F 64.4 °F 94% 30.09 in 10.0 mi ENE 4.6 mph - N/A   Overcast
7:36 AM 66.2 °F 64.4 °F 94% 30.08 in 9.0 mi NE 6.9 mph - N/A Rain Light Rain
7:46 AM 66.2 °F 64.4 °F 94% 30.08 in 9.0 mi NE 6.9 mph - N/A Rain Light Rain
7:50 AM 66.2 °F 64.4 °F 94% 30.08 in 10.0 mi NE 8.1 mph - N/A Rain Light Rain
7:52 AM 66.2 °F 64.4 °F 94% 30.08 in 10.0 mi NE 6.9 mph - N/A   Mostly Cloudy
7:58 AM 66.0 °F 64.6 °F 95% 30.08 in 10.0 mi NNE 8.1 mph - 0.01 in   Mostly Cloudy
8:09 AM 66.2 °F 64.4 °F 94% 30.08 in 10.0 mi NE 6.9 mph - N/A   Light Drizzle
8:26 AM 66.2 °F 64.4 °F 94% 30.09 in 10.0 mi NE 6.9 mph - N/A   Mostly Cloudy
8:44 AM 66.2 °F 62.6 °F 88% 30.09 in 10.0 mi NE 9.2 mph - N/A Rain Light Rain
8:49 AM 66.2 °F 62.6 °F 88% 30.10 in 10.0 mi NE 10.4 mph - N/A Rain Light Rain
8:58 AM 65.5 °F 63.1 °F 92% 30.10 in 10.0 mi NNE 8.1 mph - 0.00 in Rain Light Rain
9:13 AM 64.4 °F 62.6 °F 94% 30.09 in 6.0 mi NNE 11.5 mph - N/A Rain Heavy Rain
9:38 AM 64.4 °F 64.4 °F 100% 30.09 in 9.0 mi NE 11.5 mph - N/A Rain Light Rain
9:43 AM 64.4 °F 64.4 °F 100% 30.09 in 10.0 mi NNE 11.5 mph - N/A Rain Light Rain
9:48 AM 64.4 °F 64.4 °F 100% 30.09 in 10.0 mi NNE 12.7 mph - N/A Rain Light Rain
9:58 AM 65.1 °F 63.7 °F 95% 30.10 in 10.0 mi NNE 11.5 mph - 0.05 in Rain Light Rain
10:19 AM 66.2 °F 64.4 °F 94% 30.09 in 3.0 mi NE 15.0 mph - N/A Rain Light Rain
10:27 AM 66.2 °F 64.4 °F 94% 30.09 in 2.0 mi NE 12.7 mph - N/A Rain Heavy Rain
10:36 AM 66.2 °F 64.4 °F 94% 30.10 in 4.0 mi NE 12.7 mph - N/A Rain Heavy Rain
10:40 AM 66.2 °F 64.4 °F 94% 30.09 in 3.0 mi NE 9.2 mph - N/A Rain Heavy Rain
10:58 AM 65.7 °F 64.4 °F 96% 30.10 in 3.0 mi NE 10.4 mph - 0.16 in Rain Heavy Rain
11:13 AM 66.2 °F 64.4 °F 94% 30.10 in 4.0 mi NE 12.7 mph - N/A Rain Rain
11:18 AM 66.2 °F 64.4 °F 94% 30.10 in 2.0 mi NE 10.4 mph - N/A Rain Light Rain
11:34 AM 66.2 °F 64.4 °F 94% 30.09 in 1.8 mi NE 12.7 mph - N/A Rain Heavy Rain
11:43 AM 66.2 °F 64.4 °F 94% 30.09 in 2.0 mi NE 13.8 mph - N/A Rain Rain
11:56 AM 66.2 °F 64.4 °F 94% 30.07 in 2.0 mi NE 13.8 mph - N/A Rain Heavy Rain
11:58 AM 65.8 °F 64.8 °F 96% 30.07 in 3.0 mi NE 13.8 mph - 0.20 in Rain Heavy Rain
12:05 PM 66.2 °F 64.4 °F 94% 30.07 in 2.0 mi ENE 16.1 mph - N/A Rain Heavy Rain
12:18 PM 66.2 °F 64.4 °F 94% 30.08 in 3.0 mi NE 11.5 mph - N/A Rain Heavy Rain
12:48 PM 66.2 °F 64.4 °F 94% 30.09 in 2.5 mi NE 16.1 mph - N/A Rain Heavy Rain
12:49 PM 66.2 °F 64.4 °F 94% 30.09 in 2.5 mi NE 16.1 mph - N/A Rain Heavy Rain
12:54 PM 66.2 °F 64.4 °F 94% 30.08 in 1.5 mi NE 15.0 mph - N/A Rain Heavy Rain
12:58 PM 65.5 °F 64.0 °F 95% 30.08 in 1.5 mi NE 13.8 mph - 0.25 in Rain Heavy Rain
1:03 PM 66.2 °F 64.4 °F 94% 30.08 in 3.0 mi NE 13.8 mph - N/A Rain Rain
1:08 PM 66.2 °F 64.4 °F 94% 30.09 in 6.0 mi NE 11.5 mph - N/A Rain Rain
1:13 PM 66.2 °F 64.4 °F 94% 30.09 in 8.0 mi NE 10.4 mph - N/A Rain Light Rain
1:18 PM 66.2 °F 64.4 °F 94% 30.10 in 9.0 mi NE 9.2 mph - N/A Rain Light Rain
1:38 PM 64.4 °F 62.6 °F 94% 30.09 in 4.0 mi NE 11.5 mph - N/A Rain Heavy Rain
1:53 PM 64.4 °F 62.6 °F 94% 30.10 in 3.0 mi NNE 11.5 mph - N/A Rain Heavy Rain
1:58 PM 64.4 °F 64.4 °F 100% 30.09 in 2.5 mi NNE 11.5 mph - 0.15 in Rain Heavy Rain
2:03 PM 64.4 °F 64.4 °F 100% 30.09 in 2.5 mi NNE 11.5 mph - N/A Rain Heavy Rain
2:06 PM 64.4 °F 64.4 °F 100% 30.10 in 3.0 mi NNE 11.5 mph - N/A Rain Heavy Rain
2:58 PM 65.5 °F 64.0 °F 95% 30.08 in 7.0 mi NE 11.5 mph - 0.06 in Rain Light Rain
3:03 PM 66.2 °F 64.4 °F 94% 30.07 in 9.0 mi NE 15.0 mph - N/A Rain Light Rain
3:25 PM 66.2 °F 64.4 °F 94% 30.06 in 10.0 mi NE 15.0 mph - N/A   Overcast
3:37 PM 66.2 °F 64.4 °F 94% 30.05 in 10.0 mi NE 15.0 mph - N/A   Light Drizzle
3:42 PM 66.2 °F 64.4 °F 94% 30.06 in 10.0 mi NE 13.8 mph - N/A   Light Drizzle
3:46 PM 66.2 °F 64.4 °F 94% 30.06 in 10.0 mi ENE 10.4 mph - N/A   Overcast
3:56 PM 66.2 °F 64.4 °F 94% 30.06 in 10.0 mi NE 10.4 mph - N/A   Overcast
3:58 PM 65.5 °F 63.9 °F 94% 30.06 in 10.0 mi NE 11.5 mph - 0.00 in   Overcast
4:00 PM 66.2 °F 64.4 °F 94% 30.06 in 10.0 mi NE 12.7 mph - N/A Rain Light Rain
4:50 PM 66.2 °F 64.4 °F 94% 30.06 in 10.0 mi NE 8.1 mph - N/A   Light Drizzle
4:53 PM 66.2 °F 64.4 °F 94% 30.06 in 10.0 mi NE 10.4 mph - N/A   Overcast
4:58 PM 65.5 °F 64.0 °F 95% 30.06 in 10.0 mi NNE 9.2 mph - 0.01 in   Overcast
5:04 PM 66.2 °F 64.4 °F 94% 30.06 in 10.0 mi NNE 10.4 mph - N/A   Light Drizzle
5:54 PM 66.2 °F 64.4 °F 94% 30.08 in 10.0 mi NE 9.2 mph - N/A   Light Drizzle
5:58 PM 65.5 °F 64.4 °F 96% 30.08 in 10.0 mi NE 8.1 mph - 0.01 in   Light Drizzle
6:08 PM 66.2 °F 64.4 °F 94% 30.08 in 10.0 mi NE 9.2 mph - N/A   Light Drizzle
6:18 PM 66.2 °F 64.4 °F 94% 30.08 in 9.0 mi NE 11.5 mph - N/A Rain Light Rain
6:38 PM 66.2 °F 64.4 °F 94% 30.07 in 10.0 mi NNE 11.5 mph - N/A   Overcast
6:58 PM 65.3 °F 64.2 °F 96% 30.07 in 10.0 mi NNE 11.5 mph - 0.01 in   Overcast
7:00 PM 66.2 °F 64.4 °F 94% 30.07 in 10.0 mi NNE 11.5 mph - N/A Rain Light Rain
7:13 PM 64.4 °F 64.4 °F 100% 30.08 in 10.0 mi NNE 11.5 mph - N/A   Overcast
7:15 PM 64.4 °F 64.4 °F 100% 30.08 in 10.0 mi NNE 11.5 mph - N/A   Light Drizzle
7:24 PM 64.4 °F 64.4 °F 100% 30.07 in 10.0 mi NNE 10.4 mph - N/A   Overcast
7:58 PM 65.1 °F 63.7 °F 95% 30.09 in 10.0 mi NE 10.4 mph - 0.00 in   Overcast
8:23 PM 64.4 °F 64.4 °F 100% 30.08 in 10.0 mi ENE 12.7 mph - N/A   Overcast
8:28 PM 64.4 °F 62.6 °F 94% 30.08 in 10.0 mi NE 10.4 mph - N/A   Overcast
8:38 PM 64.4 °F 64.4 °F 100% 30.08 in 10.0 mi NE 9.2 mph - N/A   Overcast
8:44 PM 64.4 °F 64.4 °F 100% 30.09 in 10.0 mi NE 10.4 mph - N/A   Overcast
8:58 PM 65.1 °F 63.7 °F 95% 30.09 in 10.0 mi NE 8.1 mph - N/A   Overcast
9:58 PM 65.1 °F 63.7 °F 95% 30.12 in 10.0 mi NE 10.4 mph - N/A   Overcast
10:58 PM 64.9 °F 63.3 °F 94% 30.12 in 10.0 mi NE 6.9 mph - N/A   Overcast
11:58 PM 65.3 °F 63.5 °F 94% 30.12 in 10.0 mi NE 8.1 mph - N/A   Overcast